Montgomery Regional (Dannelly Field) Airport
KMGM : now visible

Airfield :











YOU CAN JOIN US ON...

 
LOGIN :

Register | Disclaimer

   EN    FR    IT 

 









Legend :    VFR   Marginal VFR   IFR   Intensive IFR   Very Intensive IFR
Visi :
Ceiling :
>= 8 km
>= 3000ft
5 to 8 km
1000 to 3000 ft
1500m to 5 km
500 to 1000 ft
800 to 1500m
200 to 500 ft
< 800m
< 200 ft
Symbols :   Thunderstorms  Fog  Heavy snow  Heavy precipitations  Wind > 20 kt






- Airport Elevation : 221 ft
- IATA code : MGM


KMGM - Montgomery Regional (Dannelly Field)

CURRENT METAR :
  • 261153Z 00000KT 10SM CLR 14/13 A3014 RMK AO2 SLP205 T01440128 10161 20133 53014

EXPIRED METARs :
  • 261053Z AUTO 19003KT 10SM CLR 13/12 A3012 RMK AO2 SLP198 T01330122
  • 260953Z AUTO 00000KT 10SM CLR 16/14 A3010 RMK AO2 SLP192 T01560139

TAF KMGM
Valid from the 26 at 12:00 until the 27 at 12:00 UTC


261127Z 2612/2712 VRB03KT P6SM SKC
KZTL FIR / North America



MET'MAP, your aeronautical weather chart ! - Copyright ORBIFLY December 2007 - Disclaimer

ORBIFLY MET'MAP TEAM :

Programming & Development : Alexandra Zaïnal
Concept & original design : Baudouin d'Aumeries
Assistance for programming : Marc-Olivier Méhu
Technical & hardware support : Manuel Goepfert

Contact : metmap@orbifly.com




SOURCES & CREDITS :

   NOAA       Earth
Advisory